Location: Bamazo
(6.7448°N, 10.8189°W)
Time: 00:03:40
(UTC+00:00)

Cosmos 2298 Rocket - Pass Details

Date: 18 September 2020
Orbit: 776 x 783 km, 74.0° (Epoch: 21 October)

Event Time Altitude Azimuth Distance (km) Brightness Sun altitude
Rises 19:45:00 0° 195° (SSW) 3,260 7.4 -16.7°
Reaches altitude 10° 19:47:23 10° 196° (SSW) 2,332 6.6 -17.3°
Maximum altitude 19:52:41 79° 282° (WNW) 797 4.1 -18.6°
Drops below altitude 10° 19:57:59 10° 9° (N) 2,330 6.4 -19.9°
Sets 20:00:22 0° 11° (N) 3,257 7.2 -20.5°
